Date,TemperatureHighF,TemperatureAvgF,TemperatureLowF,DewpointHighF,DewpointAvgF,DewpointLowF,HumidityHigh,HumidityAvg,HumidityLow,PressureMaxIn,PressureMinIn,WindSpeedMaxMPH,WindSpeedAvgMPH,GustSpeedMaxMPH,PrecipitationSumIn
2013-1-1,39.0,35.1,28.9,17.3,11.8,2.8,44,38,32,29.97,29.80,8,4,11,0.08
2013-1-2,33.3,28.5,25.2,5.9,1.3,-4.1,33,30,26,30.15,29.97,9,4,12,0.20
2013-1-3,27.5,24.6,21.6,4.2,-0.4,-4.3,38,33,29,30.21,30.12,8,2,9,0.04
2013-1-4,39.9,32.4,23.2,14.2,7.4,-1.6,40,34,30,30.12,29.91,8,2,15,0.00
2013-1-5,41.9,34.9,28.6,12.9,8.7,3.8,36,33,29,30.39,29.94,9,2,10,0.00
2013-1-6,42.1,35.5,29.3,22.0,14.9,5.1,48,42,35,30.33,30.03,7,1,10,0.00
2013-1-7,43.2,36.2,30.9,24.0,17.9,12.6,50,47,44,30.53,30.06,6,1,8,0.00
2013-1-8,47.3,39.4,29.7,24.5,19.5,11.4,52,45,37,30.53,30.42,11,2,11,0.00
2013-1-9,46.6,40.4,32.4,33.5,22.6,14.4,60,49,45,30.53,30.12,9,1,13,0.00
2013-1-10,45.9,42.6,39.2,25.1,17.2,13.5,46,36,29,30.62,30.15,10,4,13,0.00
2013-1-11,44.2,39.3,33.3,22.0,17.5,11.7,46,41,38,30.62,30.36,3,0,5,0.04
2013-1-12,48.4,43.2,40.5,32.5,27.1,21.8,57,53,46,30.36,30.24,0,0,4,0.08
2013-1-13,50.4,47.4,41.2,41.0,36.2,27.3,71,65,57,30.27,30.15,5,0,6,0.00
2013-1-14,56.3,50.7,44.2,49.5,43.6,37.2,81,76,71,30.36,30.06,6,1,8,0.00
2013-1-15,44.8,43.3,41.7,38.5,37.2,35.7,80,79,77,30.39,30.30,2,0,5,0.16
2013-1-16,44.6,42.3,39.4,38.7,36.5,34.3,83,80,78,30.33,29.83,6,0,8,0.67
2013-1-17,42.4,39.3,36.0,34.7,31.0,26.0,84,72,59,30.18,29.94,6,1,9,0.00
2013-1-18,36.9,27.8,22.5,25.8,12.8,5.0,66,53,43,30.62,30.12,10,2,14,0.04
2013-1-19,47.7,38.9,22.3,29.3,20.6,5.0,54,47,42,30.56,30.06,12,3,12,0.04
2013-1-20,53.2,45.7,34.0,34.7,26.2,6.5,62,47,31,30.06,29.68,11,4,15,0.00
2013-1-21,35.4,31.9,28.4,8.3,1.5,-3.9,34,27,20,30.21,29.85,10,2,11,0.00
2013-1-22,33.6,27.6,21.7,10.9,4.5,-8.6,49,37,25,30.15,29.77,10,3,13,0.00
2013-1-23,21.9,18.7,15.8,-7.1,-15.6,-21.5,27,20,17,30.24,30.12,10,4,14,0.00
2013-1-24,22.1,18.2,14.0,-5.4,-16.1,-21.0,30,20,15,30.27,30.09,14,5,14,0.00
2013-1-25,27.5,22.0,15.6,-10.1,-14.1,-20.0,21,19,18,30.39,30.12,9,3,13,0.00
2013-1-26,28.8,25.9,22.3,8.0,-0.9,-10.4,41,31,19,30.27,30.03,11,3,13,0.04
2013-1-27,30.2,26.0,21.2,2.6,-2.8,-7.4,33,28,20,30.56,30.27,11,4,15,0.00
2013-1-28,33.6,30.1,24.4,10.1,-1.9,-8.2,37,25,20,30.56,30.09,5,0,8,0.00
2013-1-29,37.6,35.6,33.6,22.0,16.7,10.3,53,46,37,30.33,30.09,3,0,4,0.24
2013-1-30,55.4,48.2,37.8,48.0,36.8,22.2,76,65,53,30.27,29.68,13,3,15,0.08
2013-1-31,55.9,48.1,34.5,50.5,35.5,8.0,85,63,32,29.68,29.18,12,5,17,0.39